Location: Pedholt
(56.0260°N, 10.2097°E)
Time: 05:13:28
(UTC+00:00)

Abrixas rocket - Pass Details

Date: 14 July 2020
Orbit: 338 x 346 km, 48.4° (Epoch: 13 August)

Event Time Altitude Azimuth Distance (km) Brightness Sun altitude
Exits shadow 01:34:26 - 233° (SW) 1,323 4.2 -7.7°
Reaches altitude 10° 01:34:36 10° 231° (SW) 1,282 4.1 -7.6°
Maximum altitude 01:36:17 15° 195° (SSW) 1,053 3.7 -7.5°
Drops below altitude 10° 01:37:58 10° 158° (SSE) 1,279 4.4 -7.4°
Sets 01:40:33 0° 133° (SE) 2,115 5.7 -7.2°
